QTR1182 OTHH-OEJN

Flight info

Callsign QTR1182
Flight time 2h 4m
Altitude 40000
Route ULIKA M430 KSA G782 RGB M309 VEMEM
Aircraft A35K/H-SDE2E3GHIJ1J3J4J5LM1ORWXY/LB1D1

Departure

Time 2026-05-04 12:21
Airport Hamad International Airport (OTHH)

Arrival

Time 2026-05-04 14:25
Airport King Abdulaziz International Airport (OEJN)
Time Latitude Longitude Altitude Speed Heading
2026-05-04 11:55 25.26093 51.60976 36 ft 0 kts 158°
2026-05-04 12:14 25.26208 51.60999 33 ft 0 kts 248°
2026-05-04 12:16 25.26195 51.60965 33 ft 12 kts 247°
2026-05-04 12:16 25.26155 51.60859 36 ft 17 kts 247°
2026-05-04 12:16 25.26107 51.60726 36 ft 20 kts 249°
2026-05-04 12:17 25.26081 51.60661 36 ft 7 kts 237°
2026-05-04 12:17 25.26028 51.60641 36 ft 10 kts 177°
2026-05-04 12:17 25.25982 51.60656 36 ft 0 kts 159°
2026-05-04 12:18 25.25973 51.60660 36 ft 4 kts 158°
2026-05-04 12:18 25.25931 51.60678 36 ft 9 kts 158°
2026-05-04 12:18 25.25861 51.60709 35 ft 12 kts 158°
2026-05-04 12:18 25.25770 51.60749 35 ft 15 kts 158°
2026-05-04 12:19 25.25680 51.60788 36 ft 10 kts 164°
2026-05-04 12:19 25.25643 51.60763 35 ft 8 kts 221°
2026-05-04 12:19 25.25608 51.60703 35 ft 11 kts 243°
2026-05-04 12:19 25.25573 51.60605 32 ft 16 kts 258°
2026-05-04 12:20 25.25617 51.60510 31 ft 11 kts 333°
2026-05-04 12:20 25.25653 51.60493 31 ft 5 kts 337°
2026-05-04 12:20 25.25691 51.60476 32 ft 7 kts 338°
2026-05-04 12:20 25.25819 51.60419 34 ft 46 kts 338°
2026-05-04 12:21 25.26367 51.60177 33 ft 121 kts 338°
2026-05-04 12:21 25.27342 51.59739 115 ft 174 kts 338°
2026-05-04 12:21 25.28428 51.59204 955 ft 165 kts 338°
2026-05-04 12:21 25.29490 51.58736 1740 ft 167 kts 339°
2026-05-04 12:22 25.30632 51.58306 2237 ft 181 kts 342°
2026-05-04 12:22 25.31898 51.57868 2679 ft 198 kts 344°
2026-05-04 12:22 25.33267 51.57420 3209 ft 213 kts 345°
2026-05-04 12:22 25.34718 51.56894 3771 ft 226 kts 342°
2026-05-04 12:23 25.36223 51.56233 4416 ft 239 kts 338°
2026-05-04 12:23 25.37740 51.55439 5064 ft 249 kts 334°
2026-05-04 12:23 25.39323 51.54588 5750 ft 256 kts 336°
2026-05-04 12:23 25.40975 51.53787 6510 ft 261 kts 337°
2026-05-04 12:24 25.42658 51.53012 7288 ft 264 kts 337°
2026-05-04 12:24 25.44374 51.52234 8048 ft 269 kts 337°
2026-05-04 12:24 25.46082 51.51357 8846 ft 273 kts 328°
2026-05-04 12:24 25.47499 51.49961 9670 ft 276 kts 306°
2026-05-04 12:25 25.48292 51.48024 10463 ft 281 kts 283°
2026-05-04 12:25 25.48406 51.45848 11260 ft 286 kts 270°
2026-05-04 12:25 25.48296 51.43638 12113 ft 289 kts 268°
2026-05-04 12:25 25.48145 51.41398 12904 ft 297 kts 265°
2026-05-04 12:26 25.47702 51.39084 13309 ft 318 kts 256°
2026-05-04 12:26 25.47066 51.36661 13652 ft 338 kts 255°
2026-05-04 12:26 25.46352 51.34111 13971 ft 355 kts 254°
2026-05-04 12:26 25.45593 51.31445 14299 ft 370 kts 253°
2026-05-04 12:27 25.44807 51.28700 14790 ft 377 kts 253°
2026-05-04 12:27 25.44018 51.25954 15377 ft 382 kts 253°
2026-05-04 12:27 25.43198 51.23102 15985 ft 386 kts 253°
2026-05-04 12:27 25.42389 51.20293 16603 ft 390 kts 253°
2026-05-04 12:28 25.41564 51.17429 17269 ft 392 kts 252°
2026-05-04 12:28 25.40731 51.14539 17890 ft 396 kts 252°
2026-05-04 12:28 25.39891 51.11627 18451 ft 400 kts 252°
2026-05-04 12:28 25.39042 51.08685 19009 ft 403 kts 252°
2026-05-04 12:29 25.38186 51.05723 19585 ft 405 kts 252°
2026-05-04 12:29 25.37323 51.02741 20170 ft 408 kts 252°
2026-05-04 12:29 25.36455 50.99739 20763 ft 411 kts 252°
2026-05-04 12:29 25.35578 50.96712 21369 ft 415 kts 252°
2026-05-04 12:30 25.34694 50.93665 21972 ft 418 kts 252°
2026-05-04 12:30 25.33804 50.90596 22558 ft 421 kts 252°
2026-05-04 12:30 25.32906 50.87503 23158 ft 424 kts 252°
2026-05-04 12:30 25.32001 50.84389 23707 ft 427 kts 252°
2026-05-04 12:31 25.31088 50.81254 24215 ft 429 kts 252°
2026-05-04 12:31 25.30172 50.78106 24797 ft 431 kts 252°
2026-05-04 12:31 25.29251 50.74947 25401 ft 433 kts 252°
2026-05-04 12:31 25.28325 50.71773 26021 ft 435 kts 252°
2026-05-04 12:32 25.27396 50.68588 26624 ft 437 kts 252°
2026-05-04 12:32 25.26208 50.61995 27812 ft 441 kts 265°
2026-05-04 12:32 25.26062 50.58652 28385 ft 444 kts 268°
2026-05-04 12:33 25.26000 50.55235 28947 ft 446 kts 268°
2026-05-04 12:33 25.25975 50.51798 29500 ft 449 kts 269°
2026-05-04 12:33 25.25983 50.48341 30004 ft 452 kts 270°
2026-05-04 12:33 25.26064 50.44858 30412 ft 455 kts 271°
2026-05-04 12:34 25.26176 50.41357 30803 ft 458 kts 271°
2026-05-04 12:34 25.26289 50.37833 31177 ft 461 kts 271°
2026-05-04 12:34 25.26392 50.34284 31561 ft 463 kts 270°
2026-05-04 12:34 25.26483 50.30716 32029 ft 463 kts 270°
2026-05-04 12:35 25.26562 50.27170 32669 ft 459 kts 270°
2026-05-04 12:35 25.26634 50.23661 33294 ft 456 kts 270°
2026-05-04 12:35 25.26702 50.20164 33818 ft 454 kts 270°
2026-05-04 12:35 25.26768 50.16678 34272 ft 453 kts 270°
2026-05-04 12:36 25.26833 50.13203 34715 ft 451 kts 270°
2026-05-04 12:36 25.26897 50.09735 35139 ft 450 kts 270°
2026-05-04 12:36 25.26959 50.06323 35547 ft 449 kts 270°
2026-05-04 12:36 25.27022 50.02876 35950 ft 448 kts 269°
2026-05-04 12:37 25.27084 49.99436 36343 ft 447 kts 269°
2026-05-04 12:37 25.27146 49.96000 36718 ft 446 kts 269°
2026-05-04 12:37 25.27206 49.92565 37080 ft 446 kts 269°
2026-05-04 12:37 25.27266 49.89150 37442 ft 445 kts 269°
2026-05-04 12:38 25.27325 49.85717 37816 ft 444 kts 269°
2026-05-04 12:38 25.27382 49.82356 38180 ft 443 kts 269°
2026-05-04 12:38 25.27440 49.78956 38529 ft 442 kts 269°
2026-05-04 12:38 25.27496 49.75574 38797 ft 441 kts 269°
2026-05-04 12:39 25.27551 49.72191 39067 ft 440 kts 269°
2026-05-04 12:39 25.27605 49.68805 39314 ft 440 kts 269°
2026-05-04 12:39 25.27658 49.65433 39554 ft 439 kts 269°
2026-05-04 12:39 25.27711 49.62058 39757 ft 439 kts 269°
2026-05-04 12:40 25.27763 49.58686 39803 ft 439 kts 268°
2026-05-04 12:40 25.27864 49.51960 39799 ft 438 kts 268°
2026-05-04 12:41 25.27618 49.45259 39804 ft 436 kts 263°
2026-05-04 12:41 25.27054 49.38586 39799 ft 436 kts 262°
2026-05-04 12:42 25.26438 49.31925 39809 ft 436 kts 262°
2026-05-04 12:42 25.25819 49.25259 39811 ft 436 kts 262°
2026-05-04 12:43 25.25204 49.18585 39826 ft 436 kts 262°
2026-05-04 12:43 25.24593 49.11953 39835 ft 436 kts 262°
2026-05-04 12:44 25.23982 49.05294 39835 ft 436 kts 262°
2026-05-04 12:44 25.23358 48.98610 39834 ft 437 kts 262°
2026-05-04 12:45 25.22733 48.91933 39837 ft 437 kts 262°
2026-05-04 12:45 25.22105 48.85252 39838 ft 437 kts 262°
2026-05-04 12:46 25.21479 48.78615 39835 ft 437 kts 262°
2026-05-04 12:46 25.20847 48.71947 39841 ft 437 kts 262°
2026-05-04 12:47 25.20212 48.65278 39853 ft 436 kts 262°
2026-05-04 12:47 25.19578 48.58623 39849 ft 435 kts 262°
2026-05-04 12:48 25.18939 48.51967 39861 ft 435 kts 262°
2026-05-04 12:48 25.18293 48.45316 39857 ft 435 kts 262°
2026-05-04 12:49 25.17755 48.39789 39859 ft 436 kts 262°
2026-05-04 12:49 25.17001 48.32057 39860 ft 435 kts 262°
2026-05-04 12:50 25.16455 48.26486 39860 ft 435 kts 262°
2026-05-04 12:50 25.15806 48.19883 39871 ft 436 kts 262°
2026-05-04 12:51 25.15151 48.13231 39871 ft 436 kts 262°
2026-05-04 12:51 25.14491 48.06588 39874 ft 436 kts 262°
2026-05-04 12:52 25.13825 47.99942 39874 ft 436 kts 261°
2026-05-04 12:52 25.13156 47.93292 39874 ft 436 kts 261°
2026-05-04 12:53 25.12486 47.86644 39878 ft 436 kts 261°
2026-05-04 12:53 25.11804 47.79992 39881 ft 436 kts 261°
2026-05-04 12:54 25.11024 47.73360 39883 ft 436 kts 260°
2026-05-04 12:54 25.10213 47.66726 39889 ft 435 kts 260°
2026-05-04 12:55 25.09422 47.60164 39891 ft 435 kts 260°
2026-05-04 12:55 25.08632 47.53548 39892 ft 435 kts 260°
2026-05-04 12:56 25.07843 47.46935 39893 ft 435 kts 260°
2026-05-04 12:56 25.07053 47.40326 39897 ft 435 kts 260°
2026-05-04 12:57 25.06258 47.33717 39901 ft 435 kts 260°
2026-05-04 12:57 25.05455 47.27100 39906 ft 435 kts 260°
2026-05-04 12:58 25.04652 47.20492 39907 ft 435 kts 260°
2026-05-04 12:58 25.03846 47.13880 39906 ft 435 kts 260°
2026-05-04 12:59 25.03038 47.07273 39906 ft 435 kts 260°
2026-05-04 12:59 25.02230 47.00698 39909 ft 435 kts 260°
2026-05-04 13:00 25.01417 46.94101 39917 ft 435 kts 260°
2026-05-04 13:00 25.00598 46.87479 39915 ft 435 kts 260°
2026-05-04 13:01 24.99776 46.80864 39913 ft 435 kts 260°
2026-05-04 13:01 24.98953 46.74253 39913 ft 435 kts 260°
2026-05-04 13:02 24.97712 46.67753 39912 ft 432 kts 250°
2026-05-04 13:02 24.95122 46.61865 39911 ft 430 kts 239°
2026-05-04 13:03 24.91934 46.56265 39910 ft 432 kts 237°
2026-05-04 13:03 24.88652 46.50717 39914 ft 432 kts 237°
2026-05-04 13:04 24.85375 46.45159 39922 ft 432 kts 237°
2026-05-04 13:04 24.82130 46.39618 39925 ft 432 kts 238°
2026-05-04 13:05 24.78875 46.34049 39929 ft 432 kts 238°
2026-05-04 13:05 24.75625 46.28492 39927 ft 432 kts 238°
2026-05-04 13:06 24.72371 46.22940 39930 ft 431 kts 238°
2026-05-04 13:06 24.69118 46.17392 39925 ft 432 kts 238°
2026-05-04 13:07 24.65860 46.11844 39922 ft 432 kts 238°
2026-05-04 13:07 24.62612 46.06324 39921 ft 432 kts 237°
2026-05-04 13:08 24.59345 46.00776 39914 ft 432 kts 237°
2026-05-04 13:08 24.56078 45.95233 39914 ft 432 kts 237°
2026-05-04 13:09 24.52809 45.89694 39911 ft 432 kts 237°
2026-05-04 13:09 24.49535 45.84152 39908 ft 432 kts 237°
2026-05-04 13:10 24.46272 45.78625 39905 ft 432 kts 238°
2026-05-04 13:10 24.43434 45.72814 39904 ft 432 kts 243°
2026-05-04 13:11 24.40780 45.66888 39899 ft 432 kts 244°
2026-05-04 13:11 24.38160 45.60958 39897 ft 432 kts 244°
2026-05-04 13:12 24.35530 45.55025 39899 ft 432 kts 243°
2026-05-04 13:12 24.32891 45.49098 39902 ft 432 kts 243°
2026-05-04 13:13 24.30264 45.43215 39903 ft 432 kts 243°
2026-05-04 13:13 24.27619 45.37296 39905 ft 432 kts 243°
2026-05-04 13:14 24.24975 45.31388 39906 ft 431 kts 243°
2026-05-04 13:14 24.22330 45.25484 39908 ft 431 kts 243°
2026-05-04 13:15 24.19684 45.19588 39896 ft 431 kts 243°
2026-05-04 13:15 24.17033 45.13687 39920 ft 432 kts 243°
2026-05-04 13:16 24.14379 45.07777 39918 ft 432 kts 243°
2026-05-04 13:16 24.11737 45.01919 39921 ft 432 kts 243°
2026-05-04 13:17 24.09058 44.95988 39932 ft 431 kts 243°
2026-05-04 13:17 24.06415 44.90142 39926 ft 431 kts 243°
2026-05-04 13:18 24.03754 44.84261 39930 ft 431 kts 243°
2026-05-04 13:18 24.01092 44.78384 39931 ft 431 kts 243°
2026-05-04 13:19 23.98428 44.72511 39923 ft 431 kts 243°
2026-05-04 13:19 23.95753 44.66619 39934 ft 433 kts 243°
2026-05-04 13:20 23.93082 44.60710 39944 ft 433 kts 245°
2026-05-04 13:20 23.90807 44.54613 39934 ft 433 kts 248°
2026-05-04 13:21 23.88655 44.48516 39923 ft 432 kts 248°
2026-05-04 13:21 23.86506 44.42375 39924 ft 433 kts 248°
2026-05-04 13:22 23.84350 44.36233 39919 ft 433 kts 248°
2026-05-04 13:22 23.82186 44.30094 39918 ft 433 kts 248°
2026-05-04 13:23 23.80019 44.23961 39913 ft 433 kts 248°
2026-05-04 13:23 23.77865 44.17875 39911 ft 431 kts 248°
2026-05-04 13:24 23.75701 44.11768 39888 ft 431 kts 248°
2026-05-04 13:24 23.73532 44.05656 39908 ft 432 kts 248°
2026-05-04 13:25 23.70267 43.96473 39908 ft 432 kts 248°
2026-05-04 13:25 23.68091 43.90361 39922 ft 432 kts 248°
2026-05-04 13:26 23.65915 43.84262 39910 ft 432 kts 248°
2026-05-04 13:26 23.63735 43.78157 39911 ft 431 kts 248°
2026-05-04 13:27 23.61565 43.72091 39920 ft 432 kts 248°
2026-05-04 13:27 23.59374 43.65975 39934 ft 433 kts 248°
2026-05-04 13:28 23.57181 43.59860 39926 ft 432 kts 248°
2026-05-04 13:28 23.54990 43.53758 39935 ft 432 kts 248°
2026-05-04 13:29 23.52800 43.47672 39950 ft 432 kts 248°
2026-05-04 13:29 23.50604 43.41574 39959 ft 433 kts 248°
2026-05-04 13:30 23.48405 43.35477 39950 ft 431 kts 248°
2026-05-04 13:30 23.46223 43.29437 39964 ft 431 kts 248°
2026-05-04 13:31 23.44680 43.25170 39973 ft 431 kts 248°
2026-05-04 13:31 23.42556 43.19305 39965 ft 431 kts 248°
2026-05-04 13:32 23.40361 43.13251 39974 ft 430 kts 248°
2026-05-04 13:32 23.38165 43.07194 39972 ft 430 kts 248°
2026-05-04 13:33 23.35960 43.01146 39986 ft 430 kts 248°
2026-05-04 13:33 23.33752 42.95096 39980 ft 429 kts 248°
2026-05-04 13:34 23.31548 42.89057 39974 ft 429 kts 248°
2026-05-04 13:34 23.29343 42.83027 39981 ft 429 kts 247°
2026-05-04 13:35 23.26025 42.73964 39982 ft 431 kts 248°
2026-05-04 13:36 23.23803 42.67905 39986 ft 431 kts 247°
2026-05-04 13:36 23.21578 42.61847 39983 ft 431 kts 247°
2026-05-04 13:37 23.19351 42.55793 39989 ft 431 kts 247°
2026-05-04 13:37 23.17502 42.50772 39986 ft 430 kts 247°
2026-05-04 13:38 23.15275 42.44732 39984 ft 431 kts 247°
2026-05-04 13:38 23.12676 42.37695 39990 ft 432 kts 247°
2026-05-04 13:39 23.10814 42.32626 39985 ft 431 kts 248°
2026-05-04 13:39 23.08666 42.26547 39991 ft 431 kts 248°
2026-05-04 13:40 23.06529 42.20460 39997 ft 431 kts 248°
2026-05-04 13:40 23.04378 42.14426 39986 ft 430 kts 248°
2026-05-04 13:41 23.02188 42.08345 39986 ft 430 kts 248°
2026-05-04 13:41 23.00011 42.02334 39985 ft 431 kts 248°
2026-05-04 13:42 22.96742 41.93262 39983 ft 431 kts 248°
2026-05-04 13:42 22.94560 41.87206 39983 ft 431 kts 248°
2026-05-04 13:43 22.92372 41.81137 39987 ft 431 kts 248°
2026-05-04 13:43 22.90195 41.75094 39983 ft 431 kts 248°
2026-05-04 13:44 22.88009 41.69042 39983 ft 433 kts 248°
2026-05-04 13:44 22.85810 41.62961 40002 ft 433 kts 248°
2026-05-04 13:45 22.83608 41.56884 39984 ft 433 kts 248°
2026-05-04 13:45 22.81404 41.50808 39991 ft 432 kts 247°
2026-05-04 13:46 22.79206 41.44758 39987 ft 431 kts 247°
2026-05-04 13:46 22.77008 41.38715 39986 ft 432 kts 248°
2026-05-04 13:47 22.74798 41.32648 39992 ft 433 kts 247°
2026-05-04 13:47 22.72590 41.26587 39991 ft 432 kts 247°
2026-05-04 13:48 22.70375 41.20535 39993 ft 432 kts 247°
2026-05-04 13:48 22.68169 41.14516 39988 ft 432 kts 247°
2026-05-04 13:49 22.65955 41.08473 39990 ft 432 kts 247°
2026-05-04 13:49 22.63735 41.02432 39987 ft 431 kts 247°
2026-05-04 13:50 22.61513 40.96397 39988 ft 432 kts 247°
2026-05-04 13:50 22.59288 40.90361 39984 ft 432 kts 247°
2026-05-04 13:51 22.57059 40.84318 39990 ft 432 kts 247°
2026-05-04 13:51 22.54832 40.78274 39988 ft 433 kts 247°
2026-05-04 13:52 22.51480 40.69209 39988 ft 432 kts 247°
2026-05-04 13:53 22.49253 40.63201 39997 ft 434 kts 247°
2026-05-04 13:53 22.47005 40.57141 39996 ft 434 kts 247°
2026-05-04 13:54 22.43626 40.48050 39991 ft 434 kts 247°
2026-05-04 13:54 22.41396 40.42060 39691 ft 423 kts 247°
2026-05-04 13:55 22.40299 40.39115 39149 ft 421 kts 247°
2026-05-04 13:55 22.38120 40.33275 37856 ft 421 kts 248°
2026-05-04 13:55 22.37027 40.30349 37209 ft 420 kts 248°
2026-05-04 13:56 22.35937 40.27430 36581 ft 419 kts 248°
2026-05-04 13:56 22.34846 40.24513 35950 ft 419 kts 248°
2026-05-04 13:56 22.32653 40.18654 34550 ft 423 kts 248°
2026-05-04 13:57 22.31547 40.15701 33753 ft 426 kts 248°
2026-05-04 13:57 22.30428 40.12716 32907 ft 430 kts 248°
2026-05-04 13:58 22.27069 40.03783 31448 ft 414 kts 248°
2026-05-04 13:58 22.24280 39.98558 31187 ft 390 kts 238°
2026-05-04 13:58 22.22805 39.96148 31050 ft 379 kts 238°
2026-05-04 13:59 22.21375 39.93818 30892 ft 366 kts 238°
2026-05-04 13:59 22.19986 39.91551 30749 ft 356 kts 238°
2026-05-04 13:59 22.17350 39.87242 30438 ft 336 kts 238°
2026-05-04 14:00 22.16063 39.85142 30041 ft 334 kts 238°
2026-05-04 14:00 22.13519 39.80980 29169 ft 329 kts 238°
2026-05-04 14:00 22.12265 39.78929 28777 ft 327 kts 238°
2026-05-04 14:01 22.11016 39.76888 28372 ft 325 kts 238°
2026-05-04 14:01 22.09772 39.74857 27969 ft 325 kts 238°
2026-05-04 14:01 22.07285 39.70799 27191 ft 323 kts 238°
2026-05-04 14:02 22.06046 39.68777 26816 ft 323 kts 238°
2026-05-04 14:02 22.04809 39.66762 26403 ft 322 kts 238°
2026-05-04 14:02 22.03573 39.64749 26016 ft 322 kts 238°
2026-05-04 14:02 22.02339 39.62739 25622 ft 321 kts 238°
2026-05-04 14:03 22.01105 39.60729 25229 ft 321 kts 238°
2026-05-04 14:03 21.99873 39.58725 24843 ft 320 kts 238°
2026-05-04 14:03 21.98659 39.56750 24450 ft 320 kts 237°
2026-05-04 14:03 21.97429 39.54751 24061 ft 319 kts 237°
2026-05-04 14:04 21.94984 39.50774 23241 ft 317 kts 238°
2026-05-04 14:04 21.93889 39.48725 22801 ft 315 kts 244°
2026-05-04 14:04 21.92926 39.46612 22431 ft 313 kts 245°
2026-05-04 14:05 21.91065 39.42415 21684 ft 308 kts 245°
2026-05-04 14:05 21.90145 39.40342 21302 ft 306 kts 245°
2026-05-04 14:05 21.89225 39.38275 20913 ft 304 kts 245°
2026-05-04 14:06 21.88312 39.36226 20544 ft 304 kts 245°
2026-05-04 14:06 21.87396 39.34171 20219 ft 302 kts 245°
2026-05-04 14:06 21.86500 39.32164 20070 ft 292 kts 245°
2026-05-04 14:06 21.85638 39.30232 19943 ft 281 kts 245°
2026-05-04 14:07 21.84807 39.28371 19793 ft 270 kts 245°
2026-05-04 14:07 21.84003 39.26572 19689 ft 264 kts 245°
2026-05-04 14:07 21.83210 39.24795 19464 ft 264 kts 245°
2026-05-04 14:07 21.82413 39.23014 19148 ft 264 kts 245°
2026-05-04 14:08 21.81472 39.21329 18814 ft 263 kts 234°
2026-05-04 14:08 21.80311 39.19817 18489 ft 262 kts 231°
2026-05-04 14:08 21.79114 39.18350 18153 ft 260 kts 231°
2026-05-04 14:08 21.77924 39.16897 17923 ft 258 kts 231°
2026-05-04 14:09 21.75569 39.14011 17358 ft 255 kts 230°
2026-05-04 14:09 21.74402 39.12576 17049 ft 254 kts 230°
2026-05-04 14:10 21.72096 39.09742 16409 ft 249 kts 230°
2026-05-04 14:10 21.70962 39.08348 16116 ft 246 kts 230°
2026-05-04 14:10 21.69841 39.06969 15821 ft 244 kts 230°
2026-05-04 14:10 21.68721 39.05592 15543 ft 244 kts 230°
2026-05-04 14:11 21.67537 39.04329 15233 ft 244 kts 218°
2026-05-04 14:11 21.64286 39.03616 14645 ft 250 kts 168°
2026-05-04 14:11 21.62627 39.04198 14339 ft 251 kts 163°
2026-05-04 14:12 21.60997 39.04862 14048 ft 250 kts 163°
2026-05-04 14:12 21.59377 39.05522 13747 ft 248 kts 163°
2026-05-04 14:12 21.56168 39.06801 13146 ft 245 kts 163°
2026-05-04 14:13 21.54567 39.07431 12850 ft 246 kts 163°
2026-05-04 14:13 21.52962 39.08063 12488 ft 245 kts 163°
2026-05-04 14:13 21.51365 39.08690 12120 ft 244 kts 162°
2026-05-04 14:13 21.49772 39.09320 11734 ft 243 kts 162°
2026-05-04 14:14 21.48190 39.09947 11348 ft 242 kts 162°
2026-05-04 14:14 21.45052 39.11186 10613 ft 241 kts 163°
2026-05-04 14:14 21.43458 39.11815 10234 ft 241 kts 161°
2026-05-04 14:15 21.40315 39.13059 9497 ft 239 kts 161°
2026-05-04 14:15 21.37189 39.14284 8694 ft 239 kts 160°
2026-05-04 14:16 21.34466 39.16058 7948 ft 232 kts 122°
2026-05-04 14:16 21.34004 39.17682 7577 ft 227 kts 89°
2026-05-04 14:17 21.34918 39.20775 7008 ft 213 kts 64°
2026-05-04 14:17 21.35516 39.22214 6737 ft 209 kts 64°
2026-05-04 14:17 21.37111 39.24644 6059 ft 196 kts 21°
2026-05-04 14:18 21.38433 39.24818 5730 ft 192 kts 356°
2026-05-04 14:18 21.41012 39.24235 5092 ft 188 kts 343°
2026-05-04 14:19 21.43404 39.23315 4588 ft 181 kts 341°
2026-05-04 14:19 21.44585 39.22844 4367 ft 181 kts 341°
2026-05-04 14:19 21.45764 39.22380 4153 ft 180 kts 341°
2026-05-04 14:19 21.46944 39.21915 3942 ft 182 kts 340°
2026-05-04 14:20 21.48136 39.21445 3717 ft 182 kts 339°
2026-05-04 14:20 21.49324 39.20974 3481 ft 180 kts 339°
2026-05-04 14:20 21.50501 39.20509 3266 ft 180 kts 339°
2026-05-04 14:21 21.52767 39.19613 2820 ft 167 kts 338°
2026-05-04 14:21 21.53832 39.19192 2618 ft 159 kts 338°
2026-05-04 14:21 21.54854 39.18788 2423 ft 154 kts 338°
2026-05-04 14:21 21.55850 39.18394 2239 ft 150 kts 338°
2026-05-04 14:22 21.56835 39.18004 2042 ft 152 kts 337°
2026-05-04 14:22 21.57813 39.17616 1844 ft 145 kts 339°
2026-05-04 14:22 21.58704 39.17264 1667 ft 133 kts 340°
2026-05-04 14:22 21.59555 39.16928 1521 ft 128 kts 339°
2026-05-04 14:23 21.61227 39.16266 1203 ft 129 kts 338°
2026-05-04 14:23 21.62064 39.15935 1028 ft 127 kts 338°
2026-05-04 14:23 21.62898 39.15602 893 ft 128 kts 337°
2026-05-04 14:24 21.63747 39.15264 732 ft 130 kts 338°
2026-05-04 14:24 21.64598 39.14927 573 ft 130 kts 337°
2026-05-04 14:24 21.65450 39.14590 413 ft 132 kts 335°
2026-05-04 14:24 21.66311 39.14249 252 ft 131 kts 335°
2026-05-04 14:25 21.67152 39.13923 59 ft 126 kts 335°
2026-05-04 14:25 21.68492 39.13389 35 ft 69 kts 339°
2026-05-04 14:25 21.68801 39.13268 33 ft 27 kts 340°
2026-05-04 14:26 21.68973 39.13201 34 ft 26 kts 340°
2026-05-04 14:26 21.69109 39.13184 32 ft 14 kts
2026-05-04 14:26 21.69174 39.13199 32 ft 15 kts 12°
2026-05-04 14:26 21.69274 39.13223 32 ft 11 kts 12°
2026-05-04 14:27 21.69361 39.13239 32 ft 14 kts
2026-05-04 14:27 21.69461 39.13226 31 ft 14 kts 344°
2026-05-04 14:27 21.69544 39.13194 31 ft 14 kts 340°
2026-05-04 14:27 21.69637 39.13160 30 ft 15 kts 341°
2026-05-04 14:28 21.69742 39.13124 30 ft 11 kts 354°
2026-05-04 14:28 21.69786 39.13150 30 ft 7 kts 49°
2026-05-04 14:28 21.69818 39.13208 30 ft 10 kts 62°
2026-05-04 14:28 21.69851 39.13266 30 ft 3 kts 48°
2026-05-04 14:29 21.69881 39.13283 30 ft 6 kts 18°
2026-05-04 14:29 21.69986 39.13254 29 ft 9 kts 340°
2026-05-04 14:30 21.70023 39.13266 29 ft 6 kts 44°
2026-05-04 14:30 21.70045 39.13308 29 ft 6 kts 65°
2026-05-04 14:30 21.70050 39.13320 29 ft 0 kts 66°